Estación de San José
Ultimos registro cada 15 minutos 82
| N° | Estación | Fecha / Hora | Temperatura | Humedad | Lluvia | Velocidad | Dirección | Radiación | Presion |
| 82 | San José | 08-05-2026 20:15 | 10,7 | 91 | 0 | 0 | 274 | 0 | 1022,2 |
| 81 | San José | 08-05-2026 20:00 | 10,6 | 90 | 0 | 0 | 171 | 0 | 1022,2 |
| 80 | San José | 08-05-2026 19:45 | 10,6 | 89 | 0 | 0 | 211 | 0 | 1022,1 |
| 79 | San José | 08-05-2026 19:30 | 10,7 | 89 | 0 | 0 | 209 | 0 | 1021,7 |
| 78 | San José | 08-05-2026 19:15 | 11,1 | 88 | 0 | 0 | 209 | 0 | 1021,6 |
| 77 | San José | 08-05-2026 19:00 | 11,3 | 88 | 0 | 0 | 209 | 0 | 1021,6 |
| 76 | San José | 08-05-2026 18:45 | 11,6 | 87 | 0 | 0 | 209 | 0 | 1021,2 |
| 75 | San José | 08-05-2026 18:30 | 11,9 | 85 | 0 | 0 | 213 | 0 | 1021,3 |
| 74 | San José | 08-05-2026 18:15 | 12,4 | 84 | 0 | 0 | 222 | 0 | 1021,2 |
| 73 | San José | 08-05-2026 18:00 | 12,9 | 82 | 0 | 0 | 214 | 0 | 1021,4 |
| 72 | San José | 08-05-2026 17:45 | 13,7 | 80 | 0 | 0 | 203 | 0 | 1021,3 |
| 71 | San José | 08-05-2026 17:30 | 14,6 | 77 | 0 | 0 | 199 | 14 | 1021,2 |
| 70 | San José | 08-05-2026 17:15 | 15,2 | 72 | 0 | 0 | 169 | 26 | 1021,4 |
| 69 | San José | 08-05-2026 17:00 | 15,9 | 71 | 0 | 0 | 200 | 40 | 1021,6 |
| 68 | San José | 08-05-2026 16:45 | 16,1 | 71 | 0 | 0 | 110 | 65 | 1021,3 |
| 67 | San José | 08-05-2026 16:30 | 16,4 | 69 | 0 | 0 | 214 | 42 | 1021,4 |
| 66 | San José | 08-05-2026 16:15 | 16,8 | 67 | 0 | 0 | 213 | 56 | 1021,3 |
| 65 | San José | 08-05-2026 16:00 | 16,6 | 69 | 0 | 0 | 213 | 102 | 1021,3 |
| 64 | San José | 08-05-2026 15:45 | 16,8 | 67 | 0 | 0 | 166 | 67 | 1021,4 |
| 63 | San José | 08-05-2026 15:30 | 17,3 | 64 | 0 | 0 | 219 | 40 | 1021,6 |
| 62 | San José | 08-05-2026 15:15 | 17,4 | 65 | 0 | 0 | 243 | 63 | 1021,7 |
| 61 | San José | 08-05-2026 15:00 | 17,4 | 61 | 0 | 0 | 312 | 47 | 1021,6 |
| 60 | San José | 08-05-2026 14:45 | 17,7 | 60 | 0 | 0 | 219 | 44 | 1021,7 |
| 59 | San José | 08-05-2026 14:30 | 17,8 | 56 | 0 | 0 | 327 | 32 | 1021,8 |
| 58 | San José | 08-05-2026 14:15 | 17,7 | 58 | 0 | 0 | 218 | 39 | 1022,2 |
| 57 | San José | 08-05-2026 14:00 | 17,7 | 56 | 0 | 0 | 160 | 527 | 1022,1 |
| 56 | San José | 08-05-2026 13:45 | 17,6 | 49 | 0 | 0 | 343 | 545 | 1022,4 |
| 55 | San José | 08-05-2026 13:30 | 17,2 | 49 | 0 | 0 | 297 | 561 | 1022,6 |
| 54 | San José | 08-05-2026 13:15 | 16,9 | 49 | 0 | 0 | 325 | 577 | 1022,8 |
| 53 | San José | 08-05-2026 13:00 | 16,4 | 58 | 0 | 0 | 41 | 578 | 1023 |
| 52 | San José | 08-05-2026 12:45 | 16,3 | 56 | 0 | 0 | 251 | 578 | 1023,1 |
| 51 | San José | 08-05-2026 12:30 | 15,9 | 59 | 0 | 0 | 262 | 512 | 1023,3 |
| 50 | San José | 08-05-2026 12:15 | 15,3 | 61 | 0 | 0 | 341 | 497 | 1023,5 |
| 49 | San José | 08-05-2026 12:00 | 14,9 | 66 | 0 | 0 | 290 | 605 | 1023,6 |
| 48 | San José | 08-05-2026 11:45 | 14,7 | 67 | 0 | 0 | 216 | 422 | 1023,9 |
| 47 | San José | 08-05-2026 11:30 | 14,1 | 72 | 0 | 0 | 281 | 654 | 1023,7 |
| 46 | San José | 08-05-2026 11:15 | 14,2 | 70 | 0 | 0 | 11 | 561 | 1023,8 |
| 45 | San José | 08-05-2026 11:00 | 13,3 | 71 | 0 | 0 | 49 | 508 | 1023,9 |
| 44 | San José | 08-05-2026 10:45 | 12,3 | 74 | 0 | 0 | 353 | 471 | 1023,7 |
| 43 | San José | 08-05-2026 10:30 | 9,9 | 83 | 0 | 0 | 308 | 417 | 1024,4 |
| 42 | San José | 08-05-2026 10:15 | 9,9 | 83 | 0 | 0 | 308 | 417 | 1024,4 |
| 41 | San José | 08-05-2026 10:00 | 9,3 | 84 | 0 | 0 | 18 | 165 | 1024,5 |
| 40 | San José | 08-05-2026 09:45 | 8,7 | 89 | 0 | 0 | 13 | 327 | 1024,3 |
| 39 | San José | 08-05-2026 09:30 | 7,8 | 95 | 0 | 0 | 185 | 301 | 1024,9 |
| 38 | San José | 08-05-2026 09:15 | 7 | 95 | 0 | 0 | 185 | 237 | 1025 |
| 37 | San José | 08-05-2026 09:00 | 6,2 | 95 | 0 | 0 | 185 | 214 | 1025 |
| 36 | San José | 08-05-2026 08:45 | 5,6 | 95 | 0 | 0 | 185 | 28 | 1024,9 |
| 35 | San José | 08-05-2026 08:30 | 4,3 | 95 | 0 | 0 | 185 | 35 | 1024,6 |
| 34 | San José | 08-05-2026 08:15 | 2,8 | 94 | 0 | 0 | 185 | 39 | 1024,5 |
| 33 | San José | 08-05-2026 08:00 | 1,6 | 94 | 0 | 0 | 185 | 39 | 1024,3 |
| 32 | San José | 08-05-2026 07:45 | 1,1 | 94 | 0 | 0 | 185 | 12 | 1024,5 |
| 31 | San José | 08-05-2026 07:30 | 0,9 | 93 | 0 | 0 | 185 | 5 | 1024,7 |
| 30 | San José | 08-05-2026 07:15 | 1,1 | 93 | 0 | 0 | 185 | 0 | 1024,5 |
| 29 | San José | 08-05-2026 07:00 | 1,4 | 93 | 0 | 0 | 185 | 0 | 1024,7 |
| 28 | San José | 08-05-2026 06:45 | 1,6 | 94 | 0,2 | 0 | 185 | 0 | 1025,1 |
| 27 | San José | 08-05-2026 06:30 | 1,3 | 93 | 0 | 0 | 185 | 0 | 1025,2 |
| 26 | San José | 08-05-2026 06:15 | 1,2 | 93 | 0 | 0 | 185 | 0 | 1025,1 |
| 25 | San José | 08-05-2026 06:00 | 1,3 | 93 | 0 | 0 | 185 | 0 | 1025 |
| 24 | San José | 08-05-2026 05:45 | 1,6 | 93 | 0 | 0 | 185 | 0 | 1025 |
| 23 | San José | 08-05-2026 05:30 | 2,1 | 93 | 0 | 0 | 185 | 0 | 1025,1 |
| 22 | San José | 08-05-2026 05:15 | 1,9 | 93 | 0 | 0 | 185 | 0 | 1025 |
| 21 | San José | 08-05-2026 05:00 | 2,2 | 93 | 0 | 0 | 185 | 0 | 1025,5 |
| 20 | San José | 08-05-2026 04:45 | 2,2 | 93 | 0 | 0 | 185 | 0 | 1025,1 |
| 19 | San José | 08-05-2026 04:30 | 2,1 | 92 | 0 | 0 | 185 | 0 | 1025,1 |
| 18 | San José | 08-05-2026 04:15 | 2,3 | 93 | 0 | 0 | 185 | 0 | 1025,1 |
| 17 | San José | 08-05-2026 04:00 | 2,4 | 92 | 0 | 0 | 185 | 0 | 1025,1 |
| 16 | San José | 08-05-2026 03:45 | 2,7 | 93 | 0 | 0 | 185 | 0 | 1025,3 |
| 15 | San José | 08-05-2026 03:30 | 2,7 | 93 | 0 | 0 | 185 | 0 | 1025,8 |
| 14 | San José | 08-05-2026 03:15 | 2,8 | 92 | 0 | 0 | 185 | 0 | 1026 |
| 13 | San José | 08-05-2026 03:00 | 2,7 | 93 | 0 | 0 | 185 | 0 | 1026,1 |
| 12 | San José | 08-05-2026 02:45 | 2,4 | 91 | 0 | 0 | 185 | 0 | 1026,2 |
| 11 | San José | 08-05-2026 02:30 | 2,8 | 90 | 0 | 0 | 185 | 0 | 1026 |
| 10 | San José | 08-05-2026 02:15 | 3,3 | 91 | 0 | 0 | 185 | 0 | 1026,1 |
| 9 | San José | 08-05-2026 02:00 | 3,8 | 91 | 0 | 0 | 185 | 0 | 1026,2 |
| 8 | San José | 08-05-2026 01:45 | 4,2 | 91 | 0 | 0 | 185 | 0 | 1026 |
| 7 | San José | 08-05-2026 01:30 | 4,7 | 92 | 0 | 0 | 185 | 0 | 1026,2 |
| 6 | San José | 08-05-2026 01:15 | 4,7 | 91 | 0 | 0 | 185 | 0 | 1026,5 |
| 5 | San José | 08-05-2026 01:00 | 4,8 | 90 | 0 | 0 | 185 | 0 | 1026,5 |
| 4 | San José | 08-05-2026 00:45 | 5,2 | 88 | 0 | 0 | 185 | 0 | 1026,7 |
| 3 | San José | 08-05-2026 00:30 | 6,1 | 87 | 0 | 0 | 185 | 0 | 1026,7 |
| 2 | San José | 08-05-2026 00:15 | 6,8 | 88 | 0 | 0 | 185 | 0 | 1026,9 |
| 1 | San José | 08-05-2026 00:00 | 7,4 | 87 | 0 | 0 | 185 | 0 | 1027,3 |